Location: Flynn Junction
(40.1314°N, 99.5162°W)
Time: 20:53:21
(UTC+00:00)

Cosmos 2082 Rocket - Pass Details

Date: 29 October 2020
Orbit: 833 x 854 km, 71.0° (Epoch: 01 December)

Event Time Altitude Azimuth Distance (km) Brightness Sun altitude
Exits shadow 12:09:35 12° 255° (WSW) 2,326 3.9 -11.1°
Maximum altitude 12:13:39 24° 306° (NW) 1,663 3.2 -10.3°
Drops below altitude 10° 12:18:09 10° 359° (N) 2,453 4.5 -9.5°
Sets 12:21:05 0° 13° (NNE) 3,393 5.4 -8.9°
